GW6453 Weather Reports


Display with metric or nautical units.
time (UTC)temp
F
wind
direction
speed
MPH
gust
MPH
rain 1hr
in
rain 24hr
in
rain mn
in
humidity
%
barometer
mb
20260510153231 79 104 6.0 9.0 0.00 0.00 0.00 45 1016.0
20260510152734 80 87 4.0 8.0 0.00 0.00 0.00 43 1016.0
20260510152231 79 299 3.0 5.0 0.00 0.00 0.00 44 1016.0
20260510151732 79 68 4.0 5.0 0.00 0.00 0.00 44 1016.0
20260510151232 79 74 4.0 6.0 0.00 0.00 0.00 45 1016.0
20260510150732 80 83 2.0 4.0 0.00 0.00 0.00 46 1016.0
20260510150233 80 100 2.0 4.0 0.00 0.00 0.00 47 1016.0
20260510145731 79 346 1.0 3.0 0.00 0.00 0.00 47 1016.0
20260510145233 78 260 4.0 7.0 0.00 0.00 0.00 48 1016.0
20260510144731 79 30 2.0 4.0 0.00 0.00 0.00 50 1016.0
20260510144231 79 7 1.0 2.0 0.00 0.00 0.00 50 1016.0
20260510143731 78 270 2.0 3.0 0.00 0.00 0.00 50 1016.0
20260510143232 78 63 1.0 4.0 0.00 0.00 0.00 52 1016.0
20260510142731 78 21 0.0 2.0 0.00 0.00 0.00 51 1016.0
20260510142232 77 203 0.0 2.0 0.00 0.00 0.00 53 1016.0
20260510141732 76 107 2.0 4.0 0.00 0.00 0.00 54 1016.0
20260510141232 75 102 1.0 2.0 0.00 0.00 0.00 57 1016.0
20260510140732 76 57 3.0 4.0 0.00 0.00 0.00 56 1016.0
20260510140233 77 207 1.0 2.0 0.00 0.00 0.00 55 1016.0
20260510135732 76 333 1.0 2.0 0.00 0.00 0.00 57 1016.0
20260510135232 75 315 2.0 3.0 0.00 0.00 0.00 58 1016.0
20260510134731 74 291 2.0 4.0 0.00 0.00 0.00 61 1016.0
20260510134232 74 87 3.0 4.0 0.00 0.00 0.00 62 1016.0
20260510133732 75 44 1.0 3.0 0.00 0.00 0.00 60 1016.0
20260510133231 75 258 1.0 3.0 0.00 0.00 0.00 61 1016.0
20260510132732 75 305 1.0 3.0 0.00 0.00 0.00 61 1016.0
20260510132233 74 42 2.0 4.0 0.00 0.00 0.00 62 1016.0
20260510131732 73 306 1.0 5.0 0.00 0.00 0.00 63 1016.0
20260510131232 73 236 1.0 3.0 0.00 0.00 0.00 64 1016.0
20260510130731 73 283 3.0 4.0 0.00 0.00 0.00 64 1016.0
20260510130234 72 310 0.0 2.0 0.00 0.00 0.00 68 1016.0
20260510125734 71 233 2.0 4.0 0.00 0.00 0.00 70 1016.0
20260510125234 71 250 1.0 2.0 0.00 0.00 0.00 73 1016.0
20260510124732 71 236 0.0 3.0 0.00 0.00 0.00 74 1016.0
20260510124232 70 243 1.0 2.0 0.00 0.00 0.00 74 1015.0
20260510123732 69 235 1.0 3.0 0.00 0.00 0.00 78 1015.0
20260510123232 69 235 1.0 3.0 0.00 0.00 0.00 78 1015.0
20260510122732 68 0 0.0 0.0 0.00 0.00 0.00 79 1015.0
20260510122232 66 0 0.0 0.0 0.00 0.00 0.00 84 1015.0
20260510121732 66 215 0.0 1.0 0.00 0.00 0.00 84 1015.0
20260510121232 65 0 0.0 0.0 0.00 0.00 0.00 87 1015.0
20260510120733 64 0 0.0 0.0 0.00 0.00 0.00 87 1015.0
20260510120231 64 270 1.0 2.0 0.00 0.00 0.00 88 1015.0
20260510115733 63 241 0.0 0.0 0.00 0.00 0.00 91 1015.0
20260510115232 62 0 0.0 0.0 0.00 0.00 0.00 96 1015.0
20260510114731 60 0 0.0 0.0 0.00 0.00 0.00 98 1015.0
20260510114231 59 0 0.0 0.0 0.00 0.00 0.00 98 1015.0
20260510113731 59 0 0.0 0.0 0.00 0.00 0.00 98 1015.0
20260510113231 59 251 0.0 1.0 0.00 0.00 0.00 98 1015.0
20260510112733 58 0 0.0 0.0 0.00 0.00 0.00 98 1015.0
20260510112231 58 0 0.0 0.0 0.00 0.00 0.00 98 1015.0
20260510111733 58 0 0.0 0.0 0.00 0.00 0.00 98 1015.0
20260510111232 58 233 0.0 0.0 0.00 0.00 0.00 98 1014.0
20260510110734 58 0 0.0 0.0 0.00 0.00 0.00 98 1014.0
20260510110233 58 298 0.0 0.0 0.00 0.00 0.00 98 1014.0
20260510105732 58 0 0.0 0.0 0.00 0.00 0.00 98 1014.0
20260510105231 58 0 0.0 0.0 0.00 0.00 0.00 98 1014.0
20260510104734 58 0 0.0 0.0 0.00 0.00 0.00 98 1014.0
20260510104232 58 0 0.0 0.0 0.00 0.00 0.00 98 1014.0
20260510103731 58 267 0.0 0.0 0.00 0.00 0.00 98 1014.0
20260510103232 58 239 0.0 1.0 0.00 0.00 0.00 98 1014.0
20260510102731 58 260 0.0 0.0 0.00 0.00 0.00 98 1014.0
20260510102232 58 0 0.0 0.0 0.00 0.00 0.00 98 1013.0
20260510101732 58 247 0.0 1.0 0.00 0.00 0.00 98 1013.0
20260510101232 58 0 0.0 0.0 0.00 0.00 0.00 98 1013.0
20260510100731 58 247 0.0 2.0 0.00 0.00 0.00 98 1013.0
20260510100232 59 0 0.0 0.0 0.00 0.00 0.00 98 1013.0
20260510095731 58 0 0.0 0.0 0.00 0.00 0.00 98 1013.0
20260510095231 59 0 0.0 0.0 0.00 0.00 0.00 97 1013.0
20260510094733 59 187 0.0 1.0 0.00 0.00 0.00 97 1013.0
20260510094231 59 322 0.0 1.0 0.00 0.00 0.00 97 1013.0
20260510093732 59 283 1.0 2.0 0.00 0.00 0.00 97 1013.0
20260510093232 59 0 0.0 0.0 0.00 0.00 0.00 97 1013.0
20260510092732 59 331 0.0 1.0 0.00 0.00 0.00 97 1013.0
20260510092233 59 0 0.0 0.0 0.00 0.00 0.00 97 1013.0
20260510091732 59 349 0.0 2.0 0.00 0.00 0.00 97 1013.0
20260510091231 59 114 0.0 0.0 0.00 0.00 0.00 97 1013.0
20260510090731 59 0 0.0 0.0 0.00 0.00 0.00 97 1013.0
20260510090232 60 0 0.0 0.0 0.00 0.00 0.00 97 1013.0
20260510085731 60 244 1.0 2.0 0.00 0.00 0.00 97 1013.0
20260510085231 60 0 0.0 0.0 0.00 0.00 0.00 97 1013.0
20260510084732 60 0 0.0 0.0 0.00 0.00 0.00 96 1013.0
20260510084231 60 0 0.0 0.0 0.00 0.00 0.00 96 1013.0
20260510083732 60 0 0.0 0.0 0.00 0.00 0.00 96 1013.0
20260510083232 60 0 0.0 0.0 0.00 0.00 0.00 96 1013.0
20260510082732 60 303 0.0 1.0 0.00 0.00 0.00 96 1013.0
20260510082232 60 307 0.0 2.0 0.00 0.00 0.00 96 1013.0
20260510081733 60 241 0.0 1.0 0.00 0.00 0.00 96 1012.0
20260510081231 60 0 0.0 0.0 0.00 0.00 0.00 96 1012.0
20260510080731 60 0 0.0 0.0 0.00 0.00 0.00 96 1012.0
20260510080231 60 178 1.0 2.0 0.00 0.00 0.00 96 1013.0
20260510075731 60 254 0.0 1.0 0.00 0.00 0.00 96 1013.0
20260510075231 60 280 0.0 1.0 0.00 0.00 0.00 96 1013.0
20260510074731 60 0 0.0 0.0 0.00 0.00 0.00 96 1013.0
20260510074232 60 344 0.0 1.0 0.00 0.00 0.00 96 1013.0
20260510073733 60 269 1.0 2.0 0.00 0.00 0.00 96 1012.0
20260510073231 60 0 0.0 0.0 0.00 0.00 0.00 96 1012.0
20260510072731 60 245 0.0 1.0 0.00 0.00 0.00 96 1012.0
20260510072231 60 0 0.0 0.0 0.00 0.00 0.00 96 1012.0
20260510071732 60 0 0.0 0.0 0.00 0.00 0.00 95 1012.0
20260510071231 60 0 0.0 0.0 0.00 0.00 0.00 95 1012.0
20260510070734 60 256 1.0 2.0 0.00 0.00 0.00 95 1012.0
20260510070233 60 252 0.0 2.0 0.00 0.00 0.00 95 1012.0
20260510065731 60 0 0.0 0.0 0.00 0.00 0.00 95 1012.0
20260510065231 60 0 0.0 0.0 0.00 0.00 0.00 95 1012.0
20260510064731 60 289 1.0 2.0 0.00 0.00 0.00 95 1012.0
20260510064231 60 0 0.0 0.0 0.00 0.00 0.00 95 1012.0
20260510063735 61 29 0.0 0.0 0.00 0.00 0.00 95 1012.0
20260510063233 61 22 0.0 0.0 0.00 0.00 0.00 94 1012.0
20260510062732 61 0 0.0 0.0 0.00 0.00 0.00 94 1012.0
20260510062231 61 247 0.0 2.0 0.00 0.00 0.00 94 1012.0
20260510061733 61 267 0.0 1.0 0.00 0.00 0.00 94 1012.0
20260510061232 61 0 0.0 0.0 0.00 0.00 0.00 93 1012.0
20260510060732 62 317 0.0 1.0 0.00 0.00 0.00 93 1012.0
20260510060233 62 237 0.0 0.0 0.00 0.00 0.00 93 1012.0
20260510055731 62 286 0.0 1.0 0.00 0.00 0.00 93 1012.0
20260510055232 62 238 0.0 0.0 0.00 0.00 0.00 92 1012.0
20260510054733 62 264 0.0 2.0 0.00 0.00 0.00 92 1012.0
20260510054231 62 266 1.0 2.0 0.00 0.00 0.00 92 1013.0
20260510053731 62 0 0.0 0.0 0.00 0.00 0.00 92 1013.0
20260510053231 62 0 0.0 0.0 0.00 0.00 0.00 92 1013.0
20260510052732 62 245 1.0 2.0 0.00 0.00 0.00 92 1013.0
20260510052232 62 241 1.0 1.0 0.00 0.00 0.00 92 1013.0
20260510051733 62 0 0.0 0.0 0.00 0.00 0.00 92 1013.0
20260510051232 62 0 0.0 0.0 0.00 0.00 0.00 92 1013.0
20260510050731 62 0 0.0 0.0 0.00 0.00 0.00 92 1013.0
20260510050234 62 238 0.0 1.0 0.00 0.00 0.00 92 1013.0
20260510045731 62 0 0.0 0.0 0.00 0.00 0.00 92 1013.0
20260510045231 62 12 0.0 1.0 0.00 0.00 0.00 92 1013.0
20260510044731 62 0 0.0 0.0 0.00 0.00 0.00 92 1013.0
20260510044232 62 0 0.0 0.0 0.00 0.00 0.00 92 1013.0
20260510043732 62 0 0.0 0.0 0.00 0.00 0.00 92 1013.0
20260510043232 62 0 0.0 0.0 0.00 0.00 0.00 92 1013.0
20260510042732 62 0 0.0 0.0 0.00 0.00 0.00 92 1013.0
20260510042232 62 47 0.0 0.0 0.00 0.00 0.00 91 1013.0
20260510041732 63 0 0.0 0.0 0.00 0.00 0.00 91 1013.0
20260510041232 63 0 0.0 0.0 0.00 0.00 0.00 90 1013.0
20260510040731 63 262 0.0 1.0 0.00 0.00 0.00 90 1013.0
20260510040231 63 0 0.0 0.0 0.00 0.00 0.00 90 1013.0
20260510035732 63 0 0.0 0.0 0.00 0.00 0.00 90 1013.0
20260510035232 64 0 0.0 0.0 0.00 0.00 0.00 90 1013.0
20260510034732 64 350 0.0 1.0 0.00 0.00 0.00 89 1013.0
20260510034231 64 0 0.0 0.0 0.00 0.00 0.00 89 1013.0
20260510033733 64 0 0.0 0.0 0.00 0.00 0.00 88 1013.0
20260510033232 64 0 0.0 0.0 0.00 0.00 0.00 88 1013.0
20260510032733 65 275 0.0 2.0 0.00 0.00 0.00 87 1013.0
20260510032232 65 279 1.0 2.0 0.00 0.00 0.00 87 1013.0
20260510031733 65 103 0.0 1.0 0.00 0.00 0.00 86 1013.0
20260510031232 65 151 0.0 0.0 0.00 0.00 0.00 87 1013.0
20260510030734 65 0 0.0 0.0 0.00 0.00 0.00 86 1013.0
20260510030231 65 277 2.0 4.0 0.00 0.00 0.00 86 1013.0
20260510025732 65 270 2.0 4.0 0.00 0.00 0.00 86 1013.0
20260510025232 65 264 1.0 2.0 0.00 0.00 0.00 87 1012.0
20260510024732 65 260 0.0 1.0 0.00 0.00 0.00 87 1012.0
20260510024232 65 0 0.0 0.0 0.00 0.00 0.00 87 1012.0
20260510023731 65 0 0.0 0.0 0.00 0.00 0.00 86 1012.0
20260510023234 65 272 1.0 2.0 0.00 0.00 0.00 86 1012.0
20260510022733 65 288 1.0 2.0 0.00 0.00 0.00 86 1012.0
20260510022231 65 264 2.0 3.0 0.00 0.00 0.00 86 1012.0
20260510021731 65 254 0.0 1.0 0.00 0.00 0.00 87 1012.0
20260510021232 65 323 0.0 1.0 0.00 0.00 0.00 86 1012.0
20260510020732 65 253 0.0 0.0 0.00 0.00 0.00 86 1012.0
20260510020234 65 264 1.0 2.0 0.00 0.00 0.00 86 1012.0
20260510015731 65 332 0.0 1.0 0.00 0.00 0.00 87 1012.0
20260510015231 65 270 0.0 2.0 0.00 0.00 0.00 87 1012.0
20260510014733 65 0 0.0 0.0 0.00 0.00 0.00 86 1012.0
20260510014232 65 0 0.0 0.0 0.00 0.00 0.00 86 1012.0
20260510013731 66 0 0.0 0.0 0.00 0.00 0.00 85 1012.0
20260510013232 66 0 0.0 0.0 0.00 0.00 0.00 85 1012.0
20260510012731 66 249 0.0 1.0 0.00 0.00 0.00 85 1012.0
20260510012231 66 0 0.0 0.0 0.00 0.00 0.00 84 1012.0
20260510011731 67 0 0.0 0.0 0.00 0.00 0.00 83 1011.0
20260510010804 67 347 0.0 0.0 0.00 0.00 0.00 82 1011.0
20260510010231 68 0 0.0 0.0 0.00 0.00 0.00 81 1011.0
20260510005731 68 0 0.0 0.0 0.00 0.00 0.00 80 1011.0
20260510005231 68 0 0.0 0.0 0.00 0.00 0.00 80 1011.0
20260510004731 69 24 0.0 0.0 0.00 0.00 0.00 79 1011.0
20260510004231 69 22 0.0 1.0 0.00 0.00 0.00 78 1011.0
20260510003731 69 60 0.0 1.0 0.00 0.00 0.00 78 1011.0
20260510003231 69 1 0.0 1.0 0.00 0.00 0.00 77 1011.0
20260510002731 70 298 2.0 3.0 0.00 0.00 0.00 76 1011.0
20260510002233 70 0 0.0 0.0 0.00 0.00 0.00 76 1011.0
20260510001731 70 293 1.0 3.0 0.00 0.00 0.00 75 1011.0
20260510001231 70 285 2.0 3.0 0.00 0.00 0.00 75 1011.0
20260510000732 71 270 3.0 4.0 0.00 0.00 0.00 74 1011.0
20260510000233 71 0 0.0 0.0 0.00 0.00 0.00 74 1011.0
20260509235731 71 263 0.0 2.0 0.00 0.00 0.00 74 1011.0
20260509235231 71 282 0.0 2.0 0.00 0.00 0.00 74 1011.0
20260509234732 71 294 4.0 6.0 0.00 0.00 0.00 73 1011.0
20260509234231 71 266 2.0 4.0 0.00 0.00 0.00 73 1011.0
20260509233732 72 264 1.0 3.0 0.00 0.00 0.00 72 1011.0
20260509233232 72 269 2.0 4.0 0.00 0.00 0.00 72 1011.0
20260509232731 72 256 2.0 3.0 0.00 0.00 0.00 72 1011.0
20260509232232 72 272 0.0 1.0 0.00 0.00 0.00 71 1011.0
20260509231732 72 295 2.0 5.0 0.00 0.00 0.00 71 1011.0
20260509231232 73 296 3.0 4.0 0.00 0.00 0.00 70 1011.0
20260509230731 73 278 1.0 4.0 0.00 0.00 0.00 69 1010.0
20260509230231 73 290 2.0 5.0 0.00 0.00 0.00 70 1010.0
20260509225732 73 289 2.0 5.0 0.00 0.00 0.00 70 1010.0
20260509225231 73 301 4.0 6.0 0.00 0.00 0.00 69 1010.0
20260509224731 73 257 2.0 4.0 0.00 0.00 0.00 69 1010.0
20260509224231 73 268 2.0 4.0 0.00 0.00 0.00 68 1010.0
20260509223731 73 304 1.0 2.0 0.00 0.00 0.00 68 1010.0
20260509223231 74 268 2.0 5.0 0.00 0.00 0.00 67 1010.0
20260509222734 74 268 1.0 3.0 0.00 0.00 0.00 66 1011.0
20260509222232 74 299 3.0 5.0 0.00 0.00 0.00 67 1010.0
20260509221733 73 289 2.0 4.0 0.00 0.00 0.00 67 1010.0
20260509221231 73 272 4.0 6.0 0.00 0.00 0.00 67 1010.0
20260509220732 74 293 5.0 7.0 0.00 0.00 0.00 67 1010.0
20260509220232 74 292 1.0 2.0 0.00 0.00 0.00 67 1010.0
20260509215732 74 275 6.0 9.0 0.00 0.00 0.00 67 1010.0
20260509215233 74 278 2.0 5.0 0.00 0.00 0.00 67 1010.0
20260509214732 73 293 4.0 5.0 0.00 0.00 0.00 66 1010.0
20260509214232 74 285 6.0 10.0 0.00 0.00 0.00 66 1010.0
20260509213732 74 248 2.0 3.0 0.00 0.00 0.00 65 1010.0
20260509213232 74 269 5.0 8.0 0.00 0.00 0.00 65 1010.0
20260509212731 74 276 8.0 11.0 0.00 0.00 0.00 63 1010.0
20260509212232 74 284 3.0 4.0 0.00 0.00 0.00 64 1010.0
20260509211732 74 250 2.0 3.0 0.00 0.00 0.00 65 1010.0
20260509211231 74 292 5.0 7.0 0.00 0.00 0.00 64 1010.0
20260509210731 74 291 4.0 7.0 0.00 0.00 0.00 65 1010.0
20260509210232 74 320 2.0 5.0 0.00 0.00 0.00 64 1010.0
20260509205734 73 294 5.0 9.0 0.00 0.00 0.00 66 1010.0
20260509205234 73 263 4.0 8.0 0.00 0.00 0.00 66 1010.0
20260509204731 74 284 2.0 4.0 0.00 0.00 0.00 65 1010.0
20260509204232 74 310 0.0 2.0 0.00 0.00 0.00 66 1010.0
20260509203732 74 301 2.0 3.0 0.00 0.00 0.00 65 1010.0
20260509203232 73 274 2.0 5.0 0.00 0.00 0.00 64 1010.0
20260509202732 73 273 4.0 8.0 0.00 0.00 0.00 65 1010.0
20260509202231 73 264 3.0 4.0 0.00 0.00 0.00 66 1010.0
20260509201731 73 295 1.0 3.0 0.00 0.00 0.00 64 1010.0
20260509201232 73 301 5.0 8.0 0.00 0.00 0.00 64 1010.0
20260509200731 73 280 4.0 7.0 0.00 0.00 0.00 63 1010.0
20260509200231 73 291 4.0 6.0 0.00 0.00 0.00 64 1010.0
20260509195732 73 269 2.0 4.0 0.00 0.00 0.00 65 1010.0
20260509195232 73 289 5.0 9.0 0.00 0.00 0.00 64 1010.0
20260509194734 73 298 3.0 8.0 0.00 0.00 0.00 64 1011.0
20260509194233 74 118 1.0 2.0 0.00 0.00 0.00 65 1011.0
20260509193731 74 262 2.0 4.0 0.00 0.00 0.00 63 1011.0
20260509193232 74 308 2.0 3.0 0.00 0.00 0.00 62 1011.0
20260509192732 74 2 0.0 2.0 0.00 0.00 0.00 62 1011.0
20260509192232 75 265 2.0 4.0 0.00 0.00 0.00 60 1011.0
20260509191732 75 287 3.0 8.0 0.00 0.00 0.00 58 1011.0
20260509191233 75 286 2.0 4.0 0.00 0.00 0.00 57 1011.0
20260509190732 75 291 4.0 5.0 0.00 0.00 0.00 58 1011.0
20260509190233 74 296 2.0 3.0 0.00 0.00 0.00 60 1011.0
20260509185733 74 283 4.0 7.0 0.00 0.00 0.00 60 1011.0
20260509185233 74 280 4.0 5.0 0.00 0.00 0.00 59 1011.0
20260509184733 74 277 5.0 8.0 0.00 0.00 0.00 59 1011.0
20260509184232 74 270 3.0 6.0 0.00 0.00 0.00 59 1011.0
20260509183731 74 276 6.0 14.0 0.00 0.00 0.00 58 1011.0
20260509183231 74 292 3.0 4.0 0.00 0.00 0.00 57 1011.0
20260509182733 75 280 5.0 6.0 0.00 0.00 0.00 57 1011.0
20260509182234 76 284 5.0 9.0 0.00 0.00 0.00 55 1011.0
20260509181733 76 286 5.0 8.0 0.00 0.00 0.00 54 1011.0
20260509181233 76 276 6.0 9.0 0.00 0.00 0.00 53 1011.0
20260509180732 75 264 2.0 7.0 0.00 0.00 0.00 55 1011.0
20260509180232 75 241 2.0 4.0 0.00 0.00 0.00 55 1011.0
20260509175733 75 273 6.0 10.0 0.00 0.00 0.00 54 1011.0
20260509175231 75 277 5.0 10.0 0.00 0.00 0.00 55 1011.0
20260509174731 75 299 4.0 7.0 0.00 0.00 0.00 55 1011.0
20260509174233 74 298 2.0 6.0 0.00 0.00 0.00 55 1011.0
20260509173732 74 297 7.0 12.0 0.00 0.00 0.00 55 1012.0
20260509173233 74 301 2.0 4.0 0.00 0.00 0.00 59 1012.0
20260509172734 75 292 4.0 7.0 0.00 0.00 0.00 58 1012.0
20260509172233 75 20 1.0 4.0 0.00 0.00 0.00 57 1012.0
20260509171734 75 283 3.0 7.0 0.00 0.00 0.00 57 1012.0
20260509171231 75 287 4.0 7.0 0.00 0.00 0.00 56 1012.0
20260509170731 75 281 4.0 7.0 0.00 0.00 0.00 55 1012.0
20260509170234 74 223 2.0 6.0 0.00 0.00 0.00 56 1012.0
20260509165733 74 263 2.0 6.0 0.00 0.00 0.00 57 1012.0
20260509165233 74 339 0.0 3.0 0.00 0.00 0.00 57 1012.0
20260509164733 74 286 4.0 10.0 0.00 0.00 0.00 56 1012.0
20260509164232 73 78 1.0 3.0 0.00 0.00 0.00 57 1012.0
20260509163731 73 26 4.0 7.0 0.00 0.00 0.00 57 1012.0
20260509163232 73 271 6.0 9.0 0.00 0.00 0.00 58 1012.0
20260509162733 74 273 6.0 11.0 0.00 0.00 0.00 56 1012.0
20260509162232 73 263 2.0 5.0 0.00 0.00 0.00 58 1012.0
20260509161732 72 290 5.0 8.0 0.00 0.00 0.00 59 1012.0
20260509161231 72 276 9.0 11.0 0.00 0.00 0.00 60 1012.0
20260509160736 72 280 6.0 10.0 0.00 0.00 0.00 60 1012.0
20260509160233 71 293 5.0 11.0 0.00 0.00 0.00 60 1012.0
20260509155734 72 281 6.0 11.0 0.00 0.00 0.00 61 1012.0
20260509155234 72 298 3.0 10.0 0.00 0.00 0.00 60 1012.0
20260509154732 71 291 6.0 9.0 0.00 0.00 0.00 60 1012.0
20260509154232 72 293 5.0 8.0 0.00 0.00 0.00 58 1012.0
20260509153731 71 254 6.0 10.0 0.00 0.00 0.00 60 1012.0